Find Kosmos-2448

NORAD ID: 33468 Int'l Des: 2008-067 Owner: KVR/IACG Country: RU Constellation: GLONASS operational
MEOCIRCULAR

Live-Position

3D-Globus wird geladen...

Über Kosmos-2448

Beschreibung wird geladen...

Nächste Überflüge

Passes for default location (London). Set your location on the main map for personalized predictions.

Höhenverlauf

Loading altitude history...

Zweizeiliger Elementsatz

1 33468U 08067C 26105.21287691 .00000025 00000-0 00000+0 0 9991
2 33468 64.7795 71.4421 0002745 248.5156 111.4394 2.13116672134697
Epoch: 15. Apr. 2026 • Age: 26 hours

Aktueller Status

Höhe 19138.3 km
Geschwindigkeit 3.95 km/s
Subsatellitenpunkt 46.49°N, 96.75°W
Startdatum 25. Dez. 2008
Alter 17.3 years
Typ other

Technische Details

Klassifizierung Payload
Masse 1450.00 kg
Trockenmasse 1200.00 kg
Gesamtmasse 1450.00 kg
Länge 4.00 m
Durchmesser 1.50 m
Spannweite 7.80 m
Form Cyl + Ant + 2 Pan
Hersteller RESH
Bus-Typ Uragan
Phasenstatus In Orbit
Besitzer/Staat KVR/IACG/RU

Most Searched